Wind_Speed
74 78 83 88 92 96 100 103 108 94 93 80 53 34 25 21 20 21 24 25 31 39 43 45 32 28 23 19 15 9 4 8 16 23 27 31 32 36 38 48 49 52 60 69 77 83 85 85 91 93 100 102 101 100
79 80 84 89 95 99 102 105 97 93 94 70 42 30 22 20 20 21 24 27 36 37 45 42 31 28 22 16 13 12 11 8 14 20 26 32 38 39 41 47 51 51 55 62 66 71 73 74 80 90 95 100 105 105
78 84 86 91 98 101 102 108 98 93 80 54 35 27 19 20 22 24 24 28 39 41 46 39 33 27 22 17 14 12 12 11 13 18 24 29 36 40 44 46 52 54 58 60 64 63 63 70 77 82 87 96 105 104
80 84 88 92 97 101 100 99 88 84 70 42 28 21 18 20 23 22 25 32 37 43 39 35 31 27 25 22 19 20 19 18 16 18 22 27 29 40 47 49 52 53 62 63 66 67 67 69 70 74 79 86 91 99
81 86 90 94 94 100 87 93 91 78 49 33 22 18 17 21 21 22 29 33 39 38 32 33 28 27 26 27 26 25 26 26 18 18 21 26 32 39 43 47 51 54 60 65 67 69 71 73 75 79 81 81 83 87
84 89 93 96 98 96 84 88 85 49 35 22 17 16 16 17 19 25 31 36 37 33 33 31 29 32 33 32 32 32 32 24 19 18 20 26 30 36 42 47 49 55 61 63 65 69 72 77 79 80 82 82 81 85
88 92 93 95 99 85 84 82 62 41 28 18 16 15 15 16 21 28 32 36 34 33 28 28 31 33 31 30 32 28 26 22 17 16 20 23 25 29 36 42 44 53 57 60 65 67 71 76 78 80 82 85 84 85
92 95 95 81 84 85 81 79 53 34 23 16 15 14 14 18 23 31 34 33 31 28 26 26 29 33 29 24 19 19 19 18 18 19 21 22 24 26 29 32 35 42 49 55 59 62 68 72 73 79 81 83 86 86
91 91 78 75 79 79 77 74 39 26 19 17 14 14 15 19 28 33 34 30 29 30 25 26 29 31 24 20 19 20 19 20 20 19 17 17 20 20 23 29 33 36 40 44 51 60 65 64 68 73 78 81 84 89
92 79 82 78 79 78 78 47 32 22 17 15 15 12 15 22 28 33 30 25 29 30 27 28 27 30 32 27 23 22 21 22 23 22 18 16 15 13 14 20 25 29 31 35 41 48 57 63 67 70 72 77 82 86
91 81 79 79 72 75 45 33 24 17 15 15 15 11 15 23 29 32 27 24 29 30 30 28 30 30 31 33 33 31 30 29 29 28 25 22 18 15 13 14 17 21 25 29 33 38 44 50 55 63 69 73 77 80
80 74 78 67 70 51 34 26 18 13 13 13 10 12 19 24 29 27 20 25 27 27 31 32 32 33 35 36 36 37 37 35 32 30 27 23 21 18 17 18 16 16 19 22 26 30 34 38 43 47 52 60 66 72
88 79 73 70 55 35 27 22 12 12 11 7 8 15 20 25 25 15 19 24 28 27 32 34 37 39 39 40 41 40 38 40 40 37 32 29 27 25 24 21 19 19 19 19 22 25 27 30 35 38 43 48 54 60
65 61 60 50 35 27 24 14 11 9 6 4 9 15 19 24 17 14 16 20 27 26 29 34 39 38 39 40 43 45 44 41 41 38 39 36 32 28 25 24 22 20 19 20 19 21 23 25 28 33 38 41 45 50
53 53 46 32 27 25 17 12 10 8 6 5 10 13 19 22 16 15 16 23 24 28 27 31 35 38 43 43 43 42 45 46 43 41 38 38 37 35 33 30 27 24 21 20 20 20 20 22 24 26 30 35 40 43
49 38 27 24 25 18 11 12 10 11 6 5 9 13 20 19 14 11 17 21 24 30 29 28 31 32 37 42 44 47 48 50 49 49 45 41 39 38 38 36 33 31 29 27 24 22 22 22 23 25 28 31 34 36
30 26 23 22 18 12 13 11 14 14 10 6 12 12 17 18 16 12 13 20 24 26 28 32 34 32 35 43 48 49 52 51 49 49 49 43 39 38 38 39 39 36 34 32 30 27 25 24 23 24 24 26 29 32
23 22 22 19 12 13 15 13 14 12 7 7 10 14 15 20 13 10 10 15 21 22 27 31 32 35 35 40 45 48 50 54 58 52 54 52 48 42 41 41 42 41 38 34 33 32 30 29 28 28 27 25 24 26
20 20 19 14 13 17 14 16 13 10 7 10 8 11 16 21 18 9 9 16 18 22 23 26 28 31 36 38 40 43 49 51 57 57 52 50 47 44 43 43 42 43 42 40 37 33 32 31 30 28 27 27 24 22
18 18 14 12 15 17 15 17 13 9 9 8 8 10 15 21 19 11 9 12 14 16 20 27 28 31 33 35 37 39 46 50 53 53 56 55 53 49 46 46 46 47 45 44 42 40 35 33 31 30 27 25 25 24
18 14 15 11 17 16 14 14 12 11 8 9 8 10 14 19 19 12 9 10 15 20 21 26 28 35 41 41 43 42 43 46 48 48 48 47 49 50 48 49 47 49 52 50 48 44 40 36 33 31 28 25 22 21
16 15 18 14 16 15 14 15 13 11 9 9 10 11 14 14 15 19 18 18 17 20 21 21 29 38 45 46 45 44 45 45 42 43 43 42 46 47 50 55 56 54 56 56 51 48 44 41 36 33 31 27 24 22
14 18 20 16 16 18 16 13 10 8 10 8 6 13 11 12 10 13 20 20 18 17 21 23 26 35 43 53 50 49 46 49 47 42 42 41 42 52 56 58 61 62 61 60 59 56 49 44 38 36 35 32 29 25
15 21 22 17 17 17 15 14 13 13 13 11 14 14 10 12 9 15 15 15 19 10 16 19 33 31 42 48 46 47 46 50 50 45 38 45 49 49 56 61 61 61 63 61 60 59 54 46 43 39 37 36 31 24
19 25 24 19 17 15 15 13 14 14 16 17 11 9 6 8 9 15 26 22 27 29 22 22 30 38 41 42 46 46 47 47 50 49 41 45 54 58 60 62 63 62 61 63 62 59 57 50 43 36 36 35 32 28
22 26 24 20 17 16 13 13 16 17 12 10 10 13 12 7 10 12 19 14 15 23 24 33 29 37 42 40 44 48 49 50 49 53 51 54 56 59 63 62 66 62 63 62 63 57 54 48 42 37 35 35 33 29
23 24 22 19 16 14 9 10 13 15 13 14 15 17 13 12 12 15 17 17 23 28 34 34 36 40 41 39 43 44 47 46 49 52 51 58 60 61 65 69 72 68 65 62 63 56 52 47 41 36 33 33 33 31
22 21 19 16 14 11 9 11 17 17 17 18 20 19 13 10 12 17 17 26 31 32 36 37 45 47 38 36 43 47 51 53 54 53 56 60 56 59 63 65 67 65 62 64 58 52 47 44 38 34 31 31 32 31
20 18 16 15 12 11 11 15 16 15 14 18 17 14 14 17 15 18 13 32 39 34 35 36 38 42 41 45 48 52 53 53 56 59 60 58 59 61 64 64 62 61 62 59 55 47 43 41 34 31 29 29 30 29
20 18 16 13 11 11 11 13 15 16 17 16 17 16 20 23 23 25 31 35 30 26 28 31 36 42 46 49 53 60 59 57 60 60 57 55 57 59 59 58 59 59 56 54 49 41 40 37 30 28 27 28 27 29
18 15 13 12 11 11 12 12 12 13 14 15 19 19 21 19 19 22 27 30 33 35 39 41 45 47 53 57 62 64 62 62 62 59 57 56 57 57 56 55 55 53 49 48 42 37 37 34 28 25 24 25 28 29
13 13 12 10 11 12 14 17 18 18 18 17 17 15 20 23 26 29 30 33 36 40 43 46 49 55 59 62 62 62 62 62 60 59 58 57 57 55 53 50 47 46 43 40 37 35 34 32 26 23 22 23 24 26
9 8 10 12 14 16 14 12 13 16 18 18 21 24 27 31 34 36 39 42 45 47 47 49 52 56 58 59 61 62 62 61 60 59 56 53 51 49 46 44 42 40 37 35 33 30 29 30 26 22 19 18 20 22
Wind_Direction
317 319 322 326 326 326 328 328 331 329 335 337 338 333 330 333 331 324 327 335 338 339 339 346 342 343 340 338 334 332 278 248 232 227 227 223 223 221 215 217 217 214 215 215 220 224 226 226 227 229 232 234 229 229
316 318 320 322 322 325 327 328 331 336 335 335 335 329 325 328 326 329 329 331 341 338 341 340 340 340 338 339 336 328 315 268 231 227 225 227 227 229 220 217 220 219 220 220 223 221 219 221 225 227 229 233 232 229
316 317 322 322 323 326 325 326 324 334 332 331 332 327 323 325 326 323 327 329 337 336 339 336 340 341 336 335 337 340 333 304 271 231 226 226 227 229 230 227 224 220 224 225 224 222 222 222 224 227 228 232 232 230
316 318 320 322 326 325 327 325 325 331 331 328 327 323 323 329 331 336 333 332 332 336 334 334 333 336 333 331 329 332 336 327 291 260 244 232 228 230 229 230 230 226 227 225 224 224 222 224 226 230 231 232 235 236
315 317 318 319 323 323 326 331 331 329 326 327 326 319 326 326 331 340 334 333 333 334 333 333 331 332 331 329 327 321 322 322 300 271 253 242 238 238 233 231 232 229 231 230 229 225 223 223 226 230 232 232 235 236
312 312 315 317 320 324 326 332 332 323 327 323 319 315 321 327 334 333 333 333 336 330 327 332 334 336 330 323 317 318 316 317 304 279 267 257 248 245 245 237 232 234 231 233 232 230 229 230 230 231 233 234 234 237
309 311 316 316 317 320 325 328 332 323 324 318 313 314 325 333 329 330 332 337 335 329 328 337 342 336 322 315 316 319 318 321 315 300 289 277 267 256 251 249 240 236 238 236 235 234 233 232 232 233 233 236 236 236
312 312 314 319 318 318 324 331 327 321 317 312 311 313 324 325 330 331 337 338 335 345 352 347 348 345 339 326 329 339 344 337 326 313 299 289 279 269 261 254 249 245 241 239 239 238 237 237 235 235 237 237 239 239
311 313 314 316 321 322 320 325 319 316 307 309 314 313 321 329 334 335 338 338 343 352 5 355 358 359 357 353 355 347 345 342 340 329 314 296 286 278 267 262 260 253 249 244 240 240 240 239 239 238 238 240 240 242
312 309 313 311 321 321 320 321 311 308 298 309 312 313 318 336 331 337 337 337 2 1 1 5 11 10 15 19 14 4 360 360 359 355 344 332 314 296 277 268 264 263 259 253 247 242 240 241 239 240 239 239 240 240
308 308 311 316 317 319 312 312 305 292 292 308 319 312 324 334 327 334 335 356 2 2 7 11 16 18 17 20 22 20 17 15 10 7 0 351 341 329 314 291 277 271 265 259 255 251 248 246 243 240 242 243 243 243
307 308 310 318 317 310 309 305 302 282 290 308 313 321 330 332 333 332 352 9 10 14 16 19 22 24 23 21 20 19 19 20 14 13 11 6 357 350 330 319 314 299 285 274 266 261 256 252 250 247 245 244 244 245
308 311 310 311 311 302 303 305 272 265 288 302 322 328 323 334 333 345 3 15 12 18 20 22 25 26 27 25 22 19 17 18 20 17 14 10 10 5 357 346 333 322 308 294 283 272 264 259 257 254 251 248 245 245
307 308 306 308 299 300 299 279 241 262 254 288 317 320 322 336 328 333 350 10 13 9 10 18 19 20 20 22 23 22 20 16 15 16 18 16 11 7 1 355 351 344 328 313 301 290 279 271 265 261 258 255 252 250
301 301 301 297 300 298 288 227 228 228 218 287 317 329 340 339 325 322 348 5 1 5 11 10 14 17 19 19 22 20 17 17 14 13 13 14 16 15 10 4 1 356 345 333 319 308 299 293 284 276 268 265 264 262
299 296 289 292 296 289 234 208 219 196 222 262 319 349 348 337 330 336 355 359 359 4 10 11 12 18 19 19 19 21 20 16 15 13 11 8 8 10 12 10 6 0 356 351 339 326 318 312 303 293 285 278 271 263
289 286 290 295 286 250 207 216 202 208 233 268 314 332 351 344 335 325 350 357 0 4 9 12 9 11 18 18 13 11 12 13 11 10 12 10 8 7 8 8 7 4 1 354 346 343 333 320 311 306 297 286 281 275
280 286 295 286 256 211 203 209 211 220 240 276 306 336 4 4 353 336 334 342 347 356 4 1 2 1 358 10 9 3 3 2 6 5 7 8 6 6 4 4 3 3 0 355 351 345 342 337 331 324 316 304 292 283
279 289 287 261 222 202 208 205 210 205 246 273 311 337 354 3 358 348 4 354 352 2 360 359 4 3 5 6 0 359 360 0 358 359 2 4 2 1 1 1 2 2 1 359 352 350 345 341 338 331 321 317 308 298
281 290 255 241 212 204 208 210 218 212 251 289 296 331 4 5 357 337 335 325 330 340 350 355 0 357 356 358 358 1 358 356 356 356 353 358 359 359 358 357 2 5 2 0 358 352 347 345 343 337 331 324 318 309
283 263 229 219 204 207 208 214 215 234 257 272 320 324 352 354 355 346 319 316 338 349 348 359 3 358 358 354 354 356 357 353 352 354 359 1 1 358 358 358 359 3 2 2 358 354 349 347 345 343 336 331 324 314
271 231 217 210 203 203 199 193 207 240 255 272 287 307 326 326 336 1 0 350 333 318 325 326 344 346 348 348 347 349 352 350 347 351 357 2 6 5 5 2 357 358 359 357 357 355 351 348 345 345 345 339 331 327
250 216 213 211 205 203 199 204 216 247 271 245 294 319 320 330 340 355 18 9 354 351 341 312 309 313 324 333 338 344 344 343 344 343 348 348 355 356 359 359 358 356 355 353 354 354 353 348 345 348 349 347 340 333
233 211 208 208 203 206 212 221 224 242 253 265 294 309 308 331 342 331 330 332 358 325 318 257 273 298 309 318 324 330 340 338 336 338 333 343 346 352 351 351 352 351 354 350 349 351 349 351 349 348 347 347 345 341
223 208 205 205 209 213 214 226 229 243 259 280 288 302 280 7 341 321 298 300 311 302 308 274 272 285 307 316 322 330 337 337 338 335 330 335 343 344 346 347 346 346 349 351 346 349 346 348 345 345 346 349 350 348
214 204 202 201 208 216 235 237 226 239 262 270 271 305 313 286 296 297 280 285 271 276 304 298 288 304 311 317 322 326 332 334 331 335 336 337 340 336 336 342 343 345 344 346 343 343 342 345 345 345 349 351 353 353
201 195 197 204 213 216 218 224 226 228 249 255 273 293 297 311 316 302 280 269 258 270 278 281 291 299 308 314 321 324 327 327 324 323 327 326 330 329 329 334 335 338 340 341 339 339 340 342 342 344 346 351 353 353
188 186 189 194 198 211 227 226 223 238 255 263 276 284 279 287 302 320 318 304 291 280 283 286 293 298 301 310 319 323 321 323 327 327 320 323 321 318 324 325 328 333 335 336 335 336 337 339 339 341 344 348 353 354
178 179 189 199 211 230 240 229 226 239 253 270 282 283 291 296 327 303 248 267 288 282 283 287 287 301 315 315 315 317 319 319 321 321 321 322 320 319 318 321 326 329 332 332 332 333 335 338 338 338 341 346 350 351
175 184 197 210 225 232 228 228 236 249 260 275 287 281 274 273 278 266 267 275 280 284 288 289 293 300 305 308 311 313 314 315 315 317 316 316 314 315 317 318 321 323 326 328 330 333 334 337 336 337 340 341 340 356
184 197 208 218 224 228 237 244 262 289 295 277 263 276 284 282 277 271 269 274 285 288 289 292 294 297 297 300 303 306 308 311 312 314 315 315 314 314 315 315 317 320 321 325 328 331 332 336 336 337 337 341 350 354
197 209 223 232 245 256 266 277 287 281 267 276 284 272 263 264 273 283 290 295 295 296 299 300 297 295 296 298 302 305 308 310 311 311 311 311 312 312 313 314 317 319 319 322 326 329 331 334 335 337 340 343 344 347
212 233 249 260 271 276 279 280 279 281 281 274 256 260 272 283 300 308 305 304 303 301 299 296 296 297 302 305 305 307 309 309 309 310 311 311 312 312 313 314 314 315 316 321 325 327 329 333 333 336 335 337 339 342
Height
10785 10774 10763 10753 10741 10729 10716 10702 10688 10674 10659 10645 10634 10629 10623 10617 10613 10610 10607 10603 10598 10592 10586 10579 10572 10567 10563 10558 10555 10553 10551 10550 10550 10552 10554 10558 10561 10563 10570 10573 10580 10586 10591 10595 10599 10608 10623 10640 10648 10652 10651 10664 10689 10702
10773 10763 10753 10742 10730 10717 10705 10691 10678 10665 10648 10638 10628 10623 10620 10615 10611 10607 10604 10600 10594 10587 10581 10575 10569 10562 10559 10556 10552 10549 10547 10547 10546 10546 10547 10549 10552 10554 10559 10564 10569 10578 10580 10583 10589 10599 10611 10621 10623 10628 10632 10637 10655 10671
10762 10751 10744 10732 10719 10707 10692 10680 10667 10656 10640 10627 10622 10618 10616 10612 10608 10604 10600 10595 10590 10582 10575 10569 10564 10559 10555 10552 10549 10545 10542 10541 10539 10538 10539 10539 10542 10546 10548 10553 10555 10564 10566 10572 10576 10586 10598 10603 10606 10610 10617 10619 10626 10643
10751 10741 10732 10721 10709 10696 10683 10668 10654 10646 10633 10623 10617 10614 10611 10609 10605 10601 10597 10592 10585 10578 10571 10565 10559 10554 10549 10546 10543 10539 10536 10533 10531 10531 10530 10532 10534 10529 10532 10537 10542 10551 10549 10556 10562 10571 10582 10588 10594 10597 10604 10609 10614 10623
10739 10729 10719 10709 10697 10686 10674 10660 10645 10634 10623 10618 10613 10610 10607 10605 10602 10598 10593 10587 10581 10573 10567 10562 10555 10549 10543 10539 10535 10531 10528 10524 10521 10521 10521 10521 10520 10520 10521 10523 10528 10534 10535 10539 10547 10556 10563 10569 10572 10574 10580 10590 10598 10606
10726 10716 10708 10698 10686 10675 10664 10650 10635 10625 10615 10612 10610 10607 10604 10602 10599 10595 10590 10583 10576 10568 10563 10556 10549 10542 10536 10530 10525 10521 10517 10514 10511 10510 10510 10509 10510 10509 10507 10508 10514 10515 10520 10525 10530 10537 10544 10547 10555 10560 10566 10573 10581 10584
10713 10703 10696 10688 10676 10665 10654 10642 10626 10622 10613 10608 10607 10605 10602 10599 10596 10591 10586 10579 10571 10565 10557 10549 10542 10536 10527 10522 10517 10511 10508 10505 10502 10501 10499 10498 10497 10496 10495 10494 10500 10501 10503 10509 10513 10519 10524 10529 10537 10542 10550 10552 10561 10567
10700 10691 10685 10674 10663 10653 10643 10632 10621 10616 10612 10606 10603 10602 10599 10596 10593 10587 10581 10574 10568 10561 10553 10546 10539 10530 10522 10515 10510 10506 10503 10500 10497 10495 10492 10488 10486 10484 10483 10483 10485 10486 10490 10494 10496 10501 10505 10509 10518 10524 10529 10535 10538 10546
10686 10680 10670 10662 10653 10641 10630 10624 10616 10610 10608 10604 10600 10598 10596 10594 10589 10584 10577 10570 10563 10558 10551 10545 10536 10528 10520 10513 10508 10503 10499 10495 10491 10487 10483 10480 10477 10475 10474 10472 10471 10472 10475 10478 10481 10484 10487 10492 10499 10504 10508 10514 10521 10522
10674 10665 10657 10647 10638 10630 10622 10612 10609 10605 10603 10601 10598 10595 10594 10591 10586 10581 10575 10568 10561 10555 10549 10542 10536 10528 10519 10512 10507 10503 10497 10491 10485 10480 10477 10473 10469 10467 10465 10463 10461 10461 10462 10464 10466 10468 10470 10473 10478 10482 10487 10492 10496 10500
10660 10650 10641 10634 10625 10618 10608 10603 10602 10600 10598 10598 10595 10593 10591 10588 10584 10578 10573 10566 10560 10554 10548 10541 10534 10527 10520 10514 10507 10501 10494 10488 10482 10477 10471 10466 10462 10459 10457 10455 10453 10452 10451 10452 10452 10454 10456 10456 10460 10464 10467 10471 10474 10477
10643 10633 10627 10619 10613 10605 10600 10596 10594 10594 10594 10594 10592 10590 10588 10585 10581 10575 10570 10565 10560 10554 10549 10541 10534 10528 10521 10514 10507 10500 10494 10488 10481 10476 10470 10465 10460 10456 10453 10448 10446 10443 10442 10441 10442 10442 10442 10442 10443 10446 10450 10452 10454 10455
10626 10618 10612 10607 10600 10595 10591 10589 10589 10590 10590 10590 10590 10588 10585 10582 10577 10572 10569 10564 10559 10555 10549 10543 10537 10530 10522 10515 10508 10502 10495 10488 10482 10475 10469 10463 10459 10454 10449 10445 10441 10437 10434 10433 10432 10430 10430 10429 10429 10430 10431 10434 10435 10436
10606 10601 10596 10592 10589 10586 10584 10583 10584 10586 10587 10587 10587 10584 10582 10578 10573 10571 10568 10564 10560 10555 10550 10544 10538 10532 10524 10516 10510 10503 10496 10489 10484 10480 10472 10465 10459 10454 10450 10443 10437 10433 10429 10426 10424 10421 10419 10418 10417 10417 10416 10417 10418 10419
10591 10587 10583 10579 10577 10577 10577 10578 10580 10582 10584 10584 10583 10581 10578 10574 10570 10568 10565 10562 10560 10556 10549 10544 10539 10531 10523 10518 10513 10508 10501 10496 10488 10480 10474 10467 10460 10454 10447 10441 10436 10432 10427 10422 10418 10414 10410 10407 10406 10405 10404 10403 10401 10401
10580 10577 10575 10571 10569 10569 10572 10574 10577 10579 10580 10580 10580 10579 10576 10571 10568 10566 10564 10562 10557 10553 10550 10546 10540 10534 10530 10523 10517 10510 10504 10496 10488 10481 10472 10466 10461 10456 10449 10442 10435 10429 10424 10419 10414 10409 10403 10399 10396 10393 10391 10388 10386 10386
10568 10568 10567 10564 10563 10564 10568 10571 10574 10576 10577 10577 10577 10577 10575 10569 10566 10565 10563 10561 10557 10554 10549 10544 10540 10534 10529 10523 10516 10509 10503 10499 10493 10484 10478 10471 10464 10456 10448 10441 10434 10427 10421 10415 10411 10405 10399 10394 10390 10384 10379 10376 10372 10370
10560 10560 10559 10557 10556 10560 10564 10568 10571 10573 10574 10575 10574 10574 10572 10568 10565 10564 10563 10560 10556 10552 10548 10545 10539 10533 10527 10520 10517 10512 10505 10495 10490 10481 10473 10466 10460 10454 10447 10440 10433 10425 10420 10413 10407 10400 10393 10386 10380 10375 10370 10365 10361 10358
10553 10553 10552 10552 10552 10556 10561 10565 10568 10570 10571 10571 10571 10570 10568 10565 10563 10560 10558 10555 10552 10549 10546 10543 10537 10533 10527 10519 10516 10511 10504 10497 10488 10480 10476 10470 10463 10455 10448 10440 10434 10425 10417 10410 10404 10397 10389 10382 10375 10369 10362 10356 10351 10348
10546 10546 10547 10548 10549 10554 10558 10562 10565 10567 10568 10569 10569 10567 10564 10561 10558 10554 10552 10550 10549 10547 10545 10541 10536 10532 10526 10520 10515 10510 10502 10495 10489 10484 10470 10462 10458 10453 10447 10440 10431 10424 10416 10407 10400 10392 10384 10376 10369 10362 10355 10349 10344 10340
10539 10540 10543 10545 10547 10551 10555 10559 10562 10564 10565 10565 10564 10563 10560 10558 10555 10552 10549 10547 10546 10545 10542 10538 10534 10530 10525 10520 10513 10506 10502 10495 10491 10483 10478 10471 10462 10451 10445 10438 10431 10423 10414 10406 10396 10387 10379 10371 10364 10357 10349 10343 10339 10334
10533 10535 10539 10542 10545 10549 10553 10556 10559 10560 10560 10560 10559 10558 10557 10554 10551 10548 10545 10545 10544 10541 10539 10534 10528 10526 10523 10520 10517 10509 10500 10496 10489 10481 10474 10468 10462 10457 10449 10439 10430 10420 10411 10402 10394 10385 10376 10367 10359 10351 10344 10337 10333 10328
10527 10531 10535 10538 10542 10546 10551 10553 10555 10555 10554 10554 10554 10553 10551 10549 10547 10547 10546 10544 10541 10538 10534 10530 10528 10524 10519 10516 10511 10507 10500 10492 10486 10479 10472 10467 10460 10451 10443 10435 10427 10417 10409 10398 10388 10379 10370 10363 10354 10345 10339 10334 10326 10321
10522 10526 10531 10535 10539 10544 10547 10549 10550 10550 10550 10549 10549 10549 10548 10545 10542 10540 10540 10541 10538 10535 10528 10537 10528 10522 10523 10519 10513 10508 10498 10489 10481 10475 10469 10463 10455 10449 10441 10433 10426 10416 10408 10399 10388 10378 10368 10359 10349 10342 10336 10329 10324 10320
10517 10522 10527 10532 10536 10540 10542 10544 10545 10545 10544 10546 10545 10546 10544 10542 10539 10538 10536 10537 10538 10535 10534 10533 10530 10525 10519 10513 10506 10500 10492 10484 10477 10468 10463 10460 10452 10442 10436 10429 10422 10414 10404 10395 10386 10376 10366 10358 10350 10343 10335 10328 10321 10315
10512 10518 10524 10529 10533 10536 10538 10539 10539 10540 10540 10540 10540 10540 10539 10537 10537 10537 10534 10534 10533 10528 10525 10521 10520 10517 10513 10509 10500 10490 10485 10478 10473 10466 10457 10451 10446 10439 10431 10423 10416 10410 10401 10392 10384 10375 10365 10356 10347 10339 10332 10326 10319 10312
10510 10516 10521 10526 10530 10532 10534 10535 10535 10535 10536 10536 10536 10536 10535 10533 10531 10531 10529 10528 10526 10523 10520 10517 10514 10511 10508 10501 10496 10489 10481 10474 10468 10461 10452 10445 10439 10434 10426 10417 10409 10403 10395 10386 10379 10370 10361 10352 10343 10336 10331 10325 10318 10312
10508 10514 10519 10523 10526 10527 10529 10529 10529 10530 10531 10530 10530 10531 10531 10530 10529 10526 10522 10521 10517 10515 10512 10509 10506 10502 10498 10494 10486 10479 10473 10466 10460 10454 10447 10441 10434 10427 10419 10413 10406 10398 10390 10382 10373 10366 10357 10349 10341 10334 10328 10323 10317 10312
10508 10513 10516 10519 10521 10522 10522 10523 10524 10525 10525 10525 10525 10526 10524 10522 10521 10517 10520 10516 10511 10507 10504 10502 10503 10495 10489 10483 10478 10472 10467 10460 10453 10446 10438 10431 10424 10418 10411 10405 10398 10390 10383 10376 10368 10360 10351 10344 10337 10331 10326 10321 10317 10312
10507 10510 10513 10514 10515 10516 10517 10517 10519 10519 10520 10522 10522 10520 10515 10514 10513 10511 10509 10505 10502 10501 10498 10495 10489 10484 10478 10473 10469 10462 10456 10450 10444 10438 10430 10423 10416 10410 10404 10396 10389 10383 10376 10369 10362 10354 10347 10340 10334 10328 10323 10320 10317 10309
10505 10508 10509 10510 10511 10513 10514 10514 10515 10515 10516 10515 10511 10512 10508 10506 10504 10503 10500 10496 10493 10491 10488 10483 10478 10475 10471 10464 10459 10452 10445 10439 10431 10424 10418 10412 10405 10399 10393 10387 10380 10374 10368 10362 10356 10350 10342 10336 10330 10325 10322 10317 10312 10309
10503 10505 10507 10509 10511 10512 10513 10513 10512 10509 10505 10505 10505 10503 10500 10498 10497 10495 10494 10491 10487 10483 10479 10474 10470 10463 10456 10449 10443 10437 10429 10422 10416 10410 10404 10399 10393 10387 10382 10376 10370 10365 10360 10355 10349 10343 10336 10331 10327 10322 10318 10315 10312 10309
10503 10505 10507 10508 10509 10509 10508 10508 10505 10504 10502 10499 10496 10493 10492 10491 10490 10488 10485 10481 10477 10472 10467 10462 10456 10449 10443 10437 10429 10423 10416 10410 10403 10396 10390 10384 10379 10374 10370 10365 10361 10357 10352 10348 10343 10338 10333 10327 10323 10320 10317 10314 10311 10309